Location: São Paulo
(23.5507°S, 46.6334°W)
Time: 18:13:14
(UTC-03:00)

Explorer 11/Cluster Stage 4 - Visible Passes

Search period start: 17 February 2026 00:00
Search period end: 27 February 2026 00:00
Orbit: 463 x 1177 km, 28.8° (Epoch: 17 February)

Date Brightness Start Highest point End Pass type
(mag) Time Alt. Az. Time Alt. Az. Time Alt. Az.
17 Feb 7.7 03:03:07 58° SSE 03:03:07 58° SSE 03:10:15 10° ESE visible
17 Feb 7.6 04:44:21 13° WSW 04:51:33 68° S 04:58:51 10° E visible
18 Feb 8.2 02:40:20 44° SE 02:40:20 44° SE 02:45:47 10° ESE visible
18 Feb 7.6 04:21:34 22° WSW 04:27:02 68° S 04:34:32 10° E visible
19 Feb 8.9 02:17:39 29° ESE 02:17:39 29° ESE 02:21:17 10° ESE visible
19 Feb 7.6 03:58:53 35° WSW 04:02:29 69° S 04:10:09 10° E visible
20 Feb 9.5 01:55:03 17° ESE 01:55:03 17° ESE 01:56:43 10° ESE visible
20 Feb 7.5 03:36:18 55° SW 03:37:56 69° SSE 03:45:43 10° E visible
20 Feb 7.4 05:18:43 10° WSW 05:26:30 66° NNW 05:33:48 10° ENE visible
21 Feb 7.5 03:13:50 68° SE 03:13:50 68° SE 03:21:13 10° E visible
21 Feb 7.4 04:55:06 14° WSW 05:01:56 65° NNW 05:09:24 10° ENE visible
22 Feb 8.2 02:51:30 43° E 02:51:30 43° E 02:56:40 10° E visible
22 Feb 7.4 04:32:46 26° W 04:37:20 65° NNW 04:44:56 10° NE visible
23 Feb 9.1 02:29:16 24° E 02:29:16 24° E 02:32:04 10° E visible
23 Feb 7.3 04:10:33 47° W 04:12:45 64° NNW 04:20:26 10° NE visible
23 Feb 7.9 20:31:10 10° NW 20:32:42 20° NNW 20:32:42 20° NNW visible
24 Feb 9.8 02:07:08 11° E 02:07:08 11° E 02:07:25 10° E visible
24 Feb 7.3 03:48:25 62° NNW 03:48:25 62° NNW 03:55:51 10° NE visible
24 Feb 8.5 05:30:16 10° W 05:36:09 24° NNW 05:41:58 10° NNE visible
24 Feb 6.8 20:07:08 10° NW 20:10:27 35° N 20:10:27 35° N visible
25 Feb 8.1 03:26:22 39° NE 03:26:22 39° NE 03:31:14 10° NE visible
25 Feb 8.5 05:07:39 16° WNW 05:11:34 23° NNW 05:17:23 10° NNE visible
25 Feb 6.6 19:43:06 10° NW 19:46:50 36° NNE 19:48:06 30° ENE visible
26 Feb 9.1 03:04:20 20° NE 03:04:20 20° NE 03:06:33 10° NE visible
26 Feb 8.4 04:45:37 21° NW 04:46:59 22° NNW 04:52:43 10° NNE visible
26 Feb 6.5 19:19:03 10° NW 19:22:37 36° NNE 19:25:38 16° E visible
26 Feb 8.3 21:05:35 10° W 21:06:52 20° W 21:06:52 20° W visible
